• In Switzerland
  • List of Countries
  • For 7 days
  • Water Temperature
  • Satellite Maps
  • Weather Map
  • Weather Widgets
  • user-avatar
    Login

    Hourly Weather Tairovka

    Today, 23 September, Sunday

    Time Temperature Precipitation Wind Pressure Humidity
    00:00 +17°C° 0 mm 4 mps 750 mmHg 72%
    01:00 +17°C° 0 mm 4 mps 750 mmHg 73%
    02:00 +17°C° 0 mm 4 mps 750 mmHg 74%
    03:00 +15°C° 0 mm 4 mps 749 mmHg 75%
    04:00 +15°C° 0 mm 4 mps 749 mmHg 75%
    05:00 +15°C° 0 mm 5 mps 748 mmHg 74%
    06:00 +15°C° 0 mm 5 mps 748 mmHg 74%
    07:00 +16°C° 0 mm 5 mps 747 mmHg 69%
    08:00 +17°C° 0 mm 6 mps 747 mmHg 64%
    09:00 +20°C° 0 mm 7 mps 746 mmHg 60%
    10:00 +21°C° 0 mm 7 mps 746 mmHg 55%
    11:00 +22°C° 0 mm 8 mps 745 mmHg 51%
    12:00 +24°C° 0 mm 8 mps 745 mmHg 47%
    13:00 +22°C° 0.1 mm 8 mps 745 mmHg 52%
    14:00 +21°C° 0.1 mm 7 mps 745 mmHg 56%
    15:00 +20°C° 0.1 mm 7 mps 745 mmHg 61%
    16:00 +16°C° 0.5 mm 6 mps 746 mmHg 69%
    17:00 +13°C° 0.5 mm 5 mps 746 mmHg 78%
    18:00 +10°C° 0.5 mm 4 mps 746 mmHg 87%
    19:00 +10°C° 0.4 mm 4 mps 746 mmHg 87%
    20:00 +10°C° 0.4 mm 3 mps 746 mmHg 88%
    21:00 +10°C° 0.4 mm 2 mps 747 mmHg 89%
    22:00 +9°C° 0.5 mm 2 mps 747 mmHg 90%
    23:00 +9°C° 0.5 mm 2 mps 747 mmHg 91%

    Tomorrow, 24 September, Monday

    Time Temperature Precipitation Wind Pressure Humidity
    00:00 +9°C° 0.5 mm 2 mps 747 mmHg 92%
    01:00 +9°C° 0 mm 2 mps 747 mmHg 93%
    02:00 +9°C° 0 mm 2 mps 748 mmHg 94%
    03:00 +8°C° 0 mm 2 mps 748 mmHg 95%
    04:00 +8°C° 0 mm 2 mps 748 mmHg 95%
    05:00 +7°C° 0 mm 2 mps 748 mmHg 95%
    06:00 +7°C° 0 mm 2 mps 748 mmHg 95%
    07:00 +9°C° 0 mm 2 mps 748 mmHg 89%
    08:00 +10°C° 0 mm 2 mps 748 mmHg 83%
    09:00 +12°C° 0 mm 2 mps 748 mmHg 78%
    10:00 +13°C° 0 mm 3 mps 748 mmHg 70%
    11:00 +14°C° 0 mm 3 mps 748 mmHg 62%
    12:00 +17°C° 0 mm 4 mps 748 mmHg 54%
    13:00 +17°C° 0 mm 4 mps 748 mmHg 53%
    14:00 +17°C° 0 mm 4 mps 747 mmHg 52%
    15:00 +17°C° 0 mm 4 mps 747 mmHg 51%
    16:00 +15°C° 0.1 mm 4 mps 746 mmHg 57%
    17:00 +14°C° 0.1 mm 4 mps 746 mmHg 62%
    18:00 +13°C° 0.1 mm 4 mps 745 mmHg 67%
    19:00 +12°C° 0.6 mm 5 mps 745 mmHg 71%
    20:00 +11°C° 0.6 mm 6 mps 744 mmHg 76%
    21:00 +11°C° 0.6 mm 6 mps 743 mmHg 80%
    22:00 +11°C° 1.6 mm 7 mps 742 mmHg 81%
    23:00 +10°C° 1.6 mm 8 mps 741 mmHg 82%

    Day after tomorrow, 25 September, Tuesday

    Time Temperature Precipitation Wind Pressure Humidity
    00:00 +10°C° 1.6 mm 9 mps 740 mmHg 83%
    01:00 +10°C° 0.5 mm 9 mps 739 mmHg 83%
    02:00 +10°C° 0.5 mm 9 mps 738 mmHg 82%
    03:00 +11°C° 0.5 mm 9 mps 738 mmHg 82%
    04:00 +10°C° 0.6 mm 8 mps 737 mmHg 82%
    05:00 +10°C° 0.6 mm 7 mps 737 mmHg 83%
    06:00 +9°C° 0.6 mm 6 mps 737 mmHg 83%
    07:00 +9°C° 0 mm 7 mps 737 mmHg 81%
    08:00 +9°C° 0 mm 7 mps 738 mmHg 79%
    09:00 +9°C° 0 mm 7 mps 738 mmHg 77%
    10:00 +9°C° 0 mm 7 mps 738 mmHg 76%
    11:00 +9°C° 0 mm 7 mps 739 mmHg 74%
    12:00 +10°C° 0 mm 7 mps 739 mmHg 72%
    13:00 +10°C° 0.1 mm 7 mps 739 mmHg 72%
    14:00 +10°C° 0.1 mm 7 mps 740 mmHg 71%
    15:00 +10°C° 0.1 mm 7 mps 740 mmHg 70%
    16:00 +9°C° 0 mm 7 mps 741 mmHg 70%
    17:00 +9°C° 0 mm 7 mps 741 mmHg 71%
    18:00 +8°C° 0 mm 7 mps 741 mmHg 71%
    19:00 +8°C° 0 mm 7 mps 742 mmHg 71%
    20:00 +8°C° 0 mm 7 mps 742 mmHg 71%
    21:00 +6°C° 0 mm 7 mps 743 mmHg 71%
    22:00 +6°C° 0.1 mm 7 mps 743 mmHg 73%
    23:00 +6°C° 0.1 mm 7 mps 744 mmHg 75%

    26 September, Wednesday

    Time Temperature Precipitation Wind Pressure Humidity
    00:00 +5°C° 0.1 mm 7 mps 745 mmHg 76%
    01:00 +5°C° 0.2 mm 7 mps 745 mmHg 78%
    02:00 +5°C° 0.2 mm 6 mps 746 mmHg 79%
    03:00 +5°C° 0.2 mm 6 mps 747 mmHg 81%
    04:00 +4°C° 0.3 mm 6 mps 747 mmHg 82%
    05:00 +5°C° 0.3 mm 5 mps 748 mmHg 83%
    06:00 +5°C° 0.3 mm 5 mps 749 mmHg 83%
    07:00 +5°C° 0.1 mm 5 mps 749 mmHg 81%
    08:00 +3°C° 0.1 mm 5 mps 750 mmHg 78%
    09:00 +3°C° 0.1 mm 5 mps 750 mmHg 76%
    10:00 +5°C° 0 mm 5 mps 751 mmHg 69%
    11:00 +6°C° 0 mm 5 mps 751 mmHg 63%
    12:00 +7°C° 0 mm 5 mps 752 mmHg 57%
    13:00 +7°C° 0 mm 5 mps 752 mmHg 53%
    14:00 +8°C° 0 mm 5 mps 752 mmHg 48%
    15:00 +9°C° 0 mm 5 mps 752 mmHg 44%
    16:00 +8°C° 0 mm 4 mps 752 mmHg 53%
    17:00 +7°C° 0 mm 4 mps 753 mmHg 61%
    18:00 +7°C° 0 mm 3 mps 753 mmHg 70%
    19:00 +5°C° 0 mm 3 mps 753 mmHg 74%
    20:00 +4°C° 0 mm 3 mps 752 mmHg 79%
    21:00 +4°C° 0 mm 3 mps 752 mmHg 83%
    22:00 +4°C° 0 mm 3 mps 752 mmHg 81%
    23:00 +4°C° 0 mm 4 mps 752 mmHg 80%

    27 September, Thursday

    Time Temperature Precipitation Wind Pressure Humidity
    00:00 +4°C° 0 mm 4 mps 751 mmHg 78%
    01:00 +5°C° 0.2 mm 5 mps 751 mmHg 79%
    02:00 +5°C° 0.2 mm 5 mps 750 mmHg 79%
    03:00 +5°C° 0.2 mm 6 mps 749 mmHg 80%
    04:00 +5°C° 0.4 mm 7 mps 748 mmHg 82%
    05:00 +5°C° 0.4 mm 7 mps 748 mmHg 84%
    06:00 +5°C° 0.4 mm 8 mps 747 mmHg 86%
    07:00 +5°C° 0.8 mm 8 mps 746 mmHg 85%
    08:00 +5°C° 0.8 mm 8 mps 746 mmHg 85%
    09:00 +5°C° 0.8 mm 8 mps 745 mmHg 85%
    10:00 +5°C° 0.9 mm 8 mps 745 mmHg 85%
    11:00 +5°C° 0.9 mm 8 mps 744 mmHg 85%
    12:00 +5°C° 0.9 mm 8 mps 744 mmHg 86%
    13:00 +6°C° 0.5 mm 8 mps 744 mmHg 86%
    14:00 +6°C° 0.5 mm 7 mps 744 mmHg 86%
    15:00 +8°C° 0.5 mm 7 mps 744 mmHg 86%
    16:00 +8°C° 0.5 mm 7 mps 743 mmHg 86%
    17:00 +8°C° 0.5 mm 7 mps 743 mmHg 87%
    18:00 +8°C° 0.5 mm 7 mps 743 mmHg 87%
    19:00 +8°C° 0.4 mm 7 mps 742 mmHg 88%
    20:00 +8°C° 0.4 mm 7 mps 742 mmHg 88%
    21:00 +8°C° 0.4 mm 7 mps 741 mmHg 88%
    22:00 +8°C° 0.4 mm 7 mps 741 mmHg 88%
    23:00 +8°C° 0.4 mm 7 mps 741 mmHg 89%

    28 September, Friday

    Time Temperature Precipitation Wind Pressure Humidity
    00:00 +8°C° 0.4 mm 7 mps 740 mmHg 89%
    01:00 +8°C° 0.3 mm 6 mps 740 mmHg 90%
    02:00 +8°C° 0.3 mm 6 mps 740 mmHg 90%
    03:00 +9°C° 0.3 mm 5 mps 740 mmHg 91%
    04:00 +8°C° 0.3 mm 5 mps 740 mmHg 91%
    05:00 +8°C° 0.3 mm 5 mps 740 mmHg 91%
    06:00 +8°C° 0.3 mm 5 mps 740 mmHg 91%
    07:00 +8°C° 0 mm 5 mps 741 mmHg 86%
    08:00 +9°C° 0 mm 6 mps 741 mmHg 81%
    09:00 +9°C° 0 mm 7 mps 742 mmHg 77%
    10:00 +10°C° 0.1 mm 7 mps 742 mmHg 71%
    11:00 +10°C° 0.1 mm 7 mps 743 mmHg 66%
    12:00 +11°C° 0.1 mm 7 mps 743 mmHg 60%
    13:00 +11°C° 0 mm 7 mps 743 mmHg 57%
    14:00 +12°C° 0 mm 7 mps 743 mmHg 53%
    15:00 +12°C° 0 mm 7 mps 743 mmHg 50%
    16:00 +11°C° 0 mm 6 mps 743 mmHg 54%
    17:00 +10°C° 0 mm 5 mps 743 mmHg 58%
    18:00 +10°C° 0 mm 4 mps 743 mmHg 62%
    19:00 +8°C° 0.1 mm 4 mps 744 mmHg 64%
    20:00 +8°C° 0.1 mm 4 mps 744 mmHg 67%
    21:00 +7°C° 0.1 mm 4 mps 744 mmHg 70%
    22:00 +7°C° 0 mm 4 mps 744 mmHg 71%
    23:00 +6°C° 0 mm 4 mps 745 mmHg 71%
    Show more